Starlink 30272

operational
NORAD ID: 57860 Int'l Des: 2023-141 Owner: SPXS Country: US Constellation: starlink
LEOCIRCULAR

Über Starlink 30272

Beschreibung wird geladen...

Live-Position

3D-Globus wird geladen...

Nächste Überflüge

Höhenverlauf

Altitude vs Time

uPlot chart will show altitude changes over time

Zweizeiliger Elementsatz

1 57860U 23141W 25257.57171148 -.00000823 00000-0 -15675-4 0 9995
2 57860 53.1617 22.1657 0001290 64.4027 295.7107 15.30189988113366
Epoch: 14. Sept. 2025 • Age: 21 hours

Aktueller Status

Höhe 478.0 km
Geschwindigkeit 7.63 km/s
Subsatellitenpunkt 37.86°N, 8.09°E
Startdatum 12. Sept. 2023
Alter 2 years
Typ internet

Technische Details

Klassifizierung Payload
Masse 730.00 kg
Trockenmasse 700.00 kg
Gesamtmasse 730.00 kg
Länge 0.30 m
Durchmesser 4.10 m
Spannweite 29.00 m
Form Box + pan
Hersteller SPXS
Bus-Typ Starlink V2M
Phasenstatus In Orbit
Besitzer/Staat SPXS/US

Große Konstellationen

Loading constellations...